Location: Barrialito
(10.1025°N, 66.8154°W)
Time: 14:14:48
(UTC+00:00)

NOAA 6 - Visible Passes

Search period start: 16 December 2025 00:00
Search period end: 26 December 2025 00:00
Orbit: 766 x 782 km, 98.6° (Epoch: 15 December)

Date Brightness Start Highest point End Pass type
(mag) Time Alt. Az. Time Alt. Az. Time Alt. Az.
16 Dec 5.2 22:46:08 10° ESE 22:49:45 20° ENE 22:53:21 10° NNE visible
17 Dec 6.0 00:24:26 10° SSW 00:28:37 26° W 00:32:47 10° NW visible
17 Dec 4.3 23:49:21 10° S 23:54:25 68° WSW 23:59:28 10° NNW visible
18 Dec 4.2 23:15:25 10° SSE 23:20:17 45° ENE 23:25:06 10° N visible
19 Dec 7.1 00:58:32 10° WSW 00:59:15 10° W 00:59:59 10° W visible
19 Dec 5.3 22:42:51 10° ESE 22:46:12 18° ENE 22:49:31 10° NNE visible
20 Dec 5.9 00:20:42 10° SSW 00:25:02 28° W 00:29:22 10° NW visible
20 Dec 4.1 23:45:46 10° S 23:50:51 75° WSW 23:55:56 10° NNW visible
21 Dec 4.3 23:11:57 10° SE 23:16:43 41° ENE 23:21:27 10° N visible
22 Dec 7.0 00:53:57 10° WSW 00:55:41 12° W 00:57:25 10° W visible
22 Dec 5.4 22:39:37 10° ESE 22:42:38 16° ENE 22:45:39 10° NE visible
23 Dec 5.7 00:16:59 10° SSW 00:21:27 31° W 00:25:55 10° NW visible
23 Dec 4.0 23:42:10 10° S 23:47:16 83° WSW 23:52:21 10° NNW visible
24 Dec 4.5 23:08:29 10° SE 23:13:08 37° ENE 23:17:46 10° N visible
25 Dec 6.9 00:49:47 10° SW 00:52:06 13° W 00:54:25 10° WNW visible
25 Dec 5.5 22:36:26 10° ESE 22:39:05 14° ENE 22:41:42 10° NE visible
